Location: Bittkow
(50.3000°N, 19.0000°E)
Time: 05:29:10
(UTC+00:00)

USA 306 - Pass Details

Date: 19 September 2020
Orbit: 568 x 579 km, 54.0° (Epoch: 19 October)

Event Time Altitude Azimuth Distance (km) Brightness Sun altitude
Exits shadow 02:26:38 44° 211° (SSW) 793 3.2 -19.1°
Maximum altitude 02:27:47 65° 150° (SSE) 628 3.0 -19.0°
Drops below altitude 10° 02:32:00 10° 68° (ENE) 1,871 6.8 -18.4°
Sets 02:34:16 0° 66° (ENE) 2,771 8.2 -18.0°
